Location: Waco, TX
(31.5480°N, 97.1670°W)
Time: 15:57:57
(UTC-06:00)

ISS - Pass Details

Date: 04 January 2018
Orbit: 402 x 407 km, 51.6° (Epoch: 18 January)

Event Time Altitude Azimuth Distance (km) Brightness Sun altitude
Rises 02:42:47 0° 212° (SSW) 2,300 - -60.0°
Reaches altitude 10° 02:44:54 10° 205° (SSW) 1,446 - -59.6°
Maximum altitude 02:48:01 45° 132° (SE) 558 - -58.9°
Drops below altitude 10° 02:51:09 10° 58° (ENE) 1,457 - -58.3°
Sets 02:53:17 0° 51° (NE) 2,321 - -57.8°
